     2              OBSERVATION DATA    GPS                 RINEX VERSION / TYPE
teqc 1998Mar9 19980311 23:28:19UTC                          PGM / RUN BY / DATE
                                                            COMMENT
Original Marker Name: unknown                               COMMENT
Campaign Name: Cholame 1989                                 COMMENT
4-Character Station Name: C824                              COMMENT
6-Character Antenna Code: TI4100                            COMMENT
Vertical Measurement Point: PAE                             COMMENT
Vertical Offset to Rinex Ref. Point: 0.0000                 COMMENT
Radial Measurement Point: PAE                               COMMENT
Radial Offset to Rinex Ref. Point: 0.0842                   COMMENT
Antenna Height from Field Measurement: 1.5580 m             COMMENT
Original XYZ: 0.0000 0.0000 0.0000                          COMMENT
New XYZ position is based on association with SCEC monument COMMENT
E1F1C0H5+0011. Position of that monument is believed to be  COMMENT
valid to within 1 m horizontally; vertical accuracy         COMMENT
should be no worse than 3-times this value.                 COMMENT
                                                            COMMENT
Revised Rinex header created by UCSD GPS archive for        COMMENT
GSAC on 17-Apr-1999 (1999:107) 02:36:00 GMT                 COMMENT
For assistance contact dagnew@ucsd.edu or hjohnson@ucsd.edu COMMENT
                                                            COMMENT
C824                                                        MARKER NAME
unknown UNIV CALIF LOS ANGELES                              OBSERVER / AGENCY
UN04 TI 4100 2.1                                            REC # / TYPE / VERS
UN04 TI 4100                                                ANT # / TYPE
 -2587087.0000 -4521987.0000  3668562.0000                  APPROX POSITION XYZ
        1.5557        0.0000        0.0000                  ANTENNA: DELTA H/E/N
     1     1     0                                          WAVELENGTH FACT L1/2
     4    P1    P2    L1    L2                              # / TYPES OF OBSERV
     0                                                      INTERVAL
  1989    11    14    10    12   59.000000                  TIME OF FIRST OBS
  1989    11    14    16    53   29.000000                  TIME OF LAST OBS
     0                                                      # OF SATELLITES
                                                            END OF HEADER
 89 11 14 10 12 59.2600000  0  4G 2G 6G11G 9
  22966877.561    22966881.084      516637.643 7   -113887.905 8
  21656009.233    21656010.116     3509359.542 9  -7239575.440 9
  23280511.451    23280514.482     2004215.422 9
                                  -8409576.956 9   1648877.763 1
 89 11 14 10 13 29.2600000  0  4G 2G 6G11G 9
  22981703.948    22981707.378      594549.364 8    -53177.505 8
  21645723.948    21645726.772     3455313.715 9  -7281689.065 8
  23260275.039    23260280.096     1897876.515 9  -8492438.429 8
                                   1646522.675 1    228000.000 1
 89 11 14 10 13 59.0800000  0  4G 2G 6G11G 9
  22996452.648    22996456.907      672058.223 7      7218.971 8
  21635523.880    21635525.092     3401711.486 9  -7323457.020 9
  23240201.421    23240206.110     1792385.206 9  -8574639.474 9
                                   1638459.091 1    454632.000 1
 89 11 14 10 14 29.0800000  0  4G 2G 6G11G 9
  23011304.669    23011307.044      750099.000 8     68029.929 8
  21625285.582    21625287.788     3347907.166 9  -7365382.487 7
  23220046.506    23220050.851     1686470.749 9  -8657170.179 8
                                   1626461.452 1    682632.000 1
 89 11 14 10 14 59.0800000  0  4G 2G 6G11G 9
  23026165.553    23026170.558      828203.412 8    128890.458 9
  21615070.365    21615071.183     3294226.043 8  -7407211.917 8
  23199933.943    23199937.682     1580773.432 9  -8739531.700 9
                                   1609843.596 1    910632.000 1
 89 11 14 10 15 29.0800000  0  4G 2G 6G11G 9
  23041040.650    23041044.768      906369.950 9    189799.419 7
  21604878.500    21604880.319     3240669.350 9  -7448944.398 8
  23179861.501    23179866.806     1475295.989 9  -8821721.923 9
                                   1590743.988 1   1138632.000 1
 89 11 14 10 15 59.0800000  0  4G 2G 6G11G 9
  23055928.865    23055931.392      984597.984 8    250756.263 7
  21594712.104    21594713.290     3187238.410 8  -7490578.881 7
  23159830.798    23159835.531     1370041.467 9  -8903738.351 8
                                  -1025030.157 9   1366632.000 1
 89 11 14 10 16 29.0800000  0  4G 2G 6G11G 9
  23070826.688    23070830.449     1062886.604 9    311760.311 7
  21584567.729    21584568.907     3133935.042 9  -7532113.938 8
  23139846.203    23139850.865     1265012.940 8  -8985578.749 8
  24343369.218    24343370.452    -1111004.971 9   1513916.945 7
 89 11 14 10 16 59.0800000  0  4G 2G 6G11G 9
  23085735.709    23085737.804     1141234.593 9    372810.667 7
  21574449.299    21574449.900     3080760.544 9  -7573548.616 8
  23119902.689    23119908.106     1160213.201 9  -9067240.891 9
  24326999.592    24327003.287    -1197018.428 8   1446893.968 7
 89 11 14 10 17 29.0800000  0  4G 2G 6G11G 9
  23100656.678    23100658.013     1219641.571 9    433906.947 8
  21564354.716    21564357.524     3027716.319 9  -7614881.774 8
  23100003.165    23100008.346     1055644.891 8  -9148722.626 9
  24310623.657    24310627.990    -1283070.884 9   1379840.098 8
 89 11 14 10 17 59.0800000  0  4G 2G 6G11G 9
  23115587.240    23115589.748     1298106.279 9    495048.195 8
  21554286.433    21554288.624     2974804.122 8  -7656112.052 8
  23080152.373    23080153.511      951311.418 9  -9230021.409 8
  24294241.862    24294246.187    -1369161.480 9   1312756.466 8
 89 11 14 10 18 29.0800000  0  4G 2G 6G11G 9
  23130529.878    23130531.445     1376627.701 9    556233.655 9
  21544243.339    21544244.416     2922025.179 9  -7697238.514 8
  23060342.240    23060345.247      847215.461 9  -9311135.117 8
  24277852.592    24277853.771    -1455289.594 9   1245643.675 7
 89 11 14 10 18 59.0800000  0  4G 2G 6G11G 9
  23145482.656    23145485.278     1455205.407 9    617463.004 8
  21534225.339    21534226.639     2869381.132 9  -7738259.825 8
  23040578.209    23040583.152      743360.294 9  -9392061.160 8
  24261455.395    24261459.245    -1541454.564 9   1178502.093 9
 89 11 14 10 19 29.0800000  0  4G 2G 6G11G 9
  23160445.612    23160449.638     1533838.377 8    678735.409 9
  21524233.120    21524234.237     2816873.328 9  -7779174.981 8
  23020861.821    23020866.865      639748.196 9  -9472797.852 9
  24245052.783    24245055.570    -1627655.851 9   1111332.268 9
 89 11 14 10 19 59.0800000  0  4G 2G 6G11G 9
  23175420.375    23175422.500     1612525.189 9    740049.746 8
  21514266.872    21514270.128     2764503.230 9  -7819982.808 9
  23001192.138    23001197.587      536382.217 9  -9553342.738 8
  24228641.893    24228644.691    -1713892.655 8   1044134.761 8
 89 11 14 10 20 29.0800000  0  4G 2G 6G11G 9
  23190403.161    23190406.564     1691265.142 9    801405.492 8
  21504328.829    21504329.390     2712272.378 9  -7860682.162 8
  22981568.236    22981572.145      433265.017 9  -9633693.778 8
  24212229.024    24212229.216    -1800164.227 9    976910.177 9
 89 11 14 10 20 59.0800000  0  4G 2G 6G11G 9
  23205396.765    23205399.879     1770057.549 9    862802.107 9
  21494416.182    21494418.297     2660182.437 9  -7901271.712 7
  22961995.386    22961997.626      330400.003 9  -9713848.290 8
  24195803.944    24195804.396    -1886469.670 9    909659.147 8
 89 11 14 10 21 29.0800000  0  4G 2G 6G11G 9
  23220399.920    23220403.150     1848901.427 9    924238.840 9
  21484530.772    21484532.490     2608234.741 9  -7941750.426 8
  22942472.465    22942473.302      227789.741 9  -9793804.345 9
  24179369.321    24179375.552    -1972808.753 8    842381.946 8
 89 11 14 10 21 59.0800000  0  4G 2G 6G11G 9
  23235412.888    23235417.206     1927796.061 8    985715.109 9
  21474672.731    21474674.933     2556430.938 9  -7982116.986 9
  22922990.755    22922996.337      125436.924 9  -9873559.754 9
  24162940.546    24162938.229    -2059180.523 7    775079.222 9
 89 11 14 10 22 29.0800000  0  4G 2G 6G11G 9
  23250436.089    23250439.198     2006740.480 8   1047230.188 9
  21464842.074    21464843.334     2504772.333 9  -8022370.456 8
  22903564.895    22903566.949       23344.355 9  -9953112.362 8
  24146494.589    24146495.984    -2145584.214 8    707751.710 7
 89 11 14 10 22 59.0800000  0  4G 2G 6G11G 9
  23265467.772    23265471.491     2085733.479 7   1108783.108 9
  21455039.808    21455040.288     2453260.579 9  -8062509.496 8
  22884185.064    22884189.484      -78485.102 9 -10032459.968 9
  24130046.788    24130047.489    -2232019.229 7    640399.702 7
 89 11 14 10 23 29.0800000  0  4G 2G 6G11G 9
  23280508.254    23280512.528     2164774.429 7   1170373.371 8
  21445266.410    21445266.450     2401897.500 9  -8102532.642 8
  22864861.120    22864861.490     -180048.320 9 -10111600.112 8
  24113593.108    24113593.942    -2318484.360 8    573024.266 8
 89 11 14 10 23 59.0800000  0  4G 2G 6G11G 9
  23295557.658    23295561.728     2243862.578 7   1232000.404 9
  21435520.697    21435521.769     2350684.314 9  -8142438.986 9
  22845583.532    22845588.089     -281342.698 9 -10190530.812 8
  24097133.337    24097136.570    -2404979.354 9    505625.545 8
 89 11 14 10 24 29.0800000  0  4G 2G 6G11G 9
  23310617.067    23310621.785     2322997.426 8   1293663.793 9
  21425804.341    21425805.136     2299623.001 9  -8182226.997 9
  22826362.394    22826366.749     -382365.208 9 -10269249.675 9
  24080668.996    24080669.848    -2491502.822 8    438204.655 8
 89 11 14 10 24 59.0800000  0  4G 2G 6G11G 9
  23325685.325    23325688.543     2402177.778 9   1355362.669 8
  21416117.010    21416116.902     2248714.815 9  -8221895.725 9
  22807187.393    22807193.795     -483113.010 9 -10347754.387 9
  24064195.866    24064200.191    -2578054.268 8    370761.938 7
 89 11 14 10 25 29.0800000  0  4G 2G 6G11G 9
  23340761.921    23340764.172     2481403.291 8   1417096.767 8
  21406458.551    21406459.704     2197961.388 9  -8261443.895 8
  22788068.376    22788074.512     -583583.540 9 -10426043.061 9
  24047723.646    24047724.589    -2664632.856 9    303298.117 7
 89 11 14 10 25 59.0800000  0  4G 2G 6G11G 9
  23355845.915    23355849.475     2560672.895 9   1478865.207 8
  21396829.860    21396831.553     2147364.564 9  -8300870.002 9
  22769006.242    22769008.018     -683773.772 9 -10504113.339 8
  24031243.338    24031244.217    -2751237.968 8    235813.566 7
 89 11 14 10 26 29.0800000  0  4G 2G 6G11G 9
  23370939.538    23370941.165     2639985.509 9   1540667.187 8
  21387231.736    21387232.622     2096925.981 9  -8340172.751 9
  22749991.661    22749995.804     -783681.247 9 -10581963.363 9
  24014756.867    24014758.662    -2837868.226 8    168309.427 7
 89 11 14 10 26 59.0800000  0  4G 2G 6G11G 9
  23386039.903    23386043.039     2719340.537 9   1602502.235 8
  21377662.745    21377665.937     2046647.143 9  -8379351.033 8
  22731034.614    22731038.442     -883302.812 9 -10659590.574 9
  23998268.636    23998269.556    -2924523.205 8    100786.060 8
 89 11 14 10 27 29.0800000  0  4G 2G 6G11G 9
  23401149.060    23401152.135     2798737.042 9   1664369.605 8
  21368126.835    21368128.926     1996529.726 9  -8418403.552 8
  22712134.721    22712134.605     -982635.904 9 -10736992.971 9
  23981773.450    23981775.651    -3011201.870 9     33244.187 8
 89 11 14 10 27 59.0800000  0  4G 2G 6G11G 9
  23416264.824    23416267.206     2878174.294 9   1726268.729 8
  21358620.826    21358621.451     1946575.238 9  -8457329.106 8
  22693285.488    22693287.264    -1081677.673 8 -10814168.376 8
  23965272.161    23965277.926    -3097903.440 8    -34315.502 8
 89 11 14 10 28 29.0800000  0  4G 2G 6G11G 9
  23431389.740    23431392.728     2957652.020 8   1788199.391 8
  21349147.025    21349146.871     1896785.399 9  -8496126.383 8
  22674493.144    22674497.362    -1180425.369 9 -10891114.605 9
  23948772.635    23948775.055    -3184627.027 9   -101892.363 8
 89 11 14 10 28 59.0800000  0  4G 2G 6G11G 9
  23446521.110    23446524.054     3037168.880 8   1850160.517 8
  21339703.220    21339704.236     1847161.969 9  -8534794.001 8
  22655759.238    22655763.698    -1278875.941 9 -10967829.352 9
  23932265.174    23932266.576    -3271371.534 8   -169485.507 7
 89 11 14 10 29 29.0800000  0  4G 2G 6G11G 9
  23461659.571    23461663.811     3116724.518 8   1912151.861 8
  21330291.913    21330293.177     1797706.797 9  -8573330.500 9
  22637085.595    22637086.288    -1377026.501 9 -11044310.279 9
  23915754.603    23915754.975    -3358135.903 9   -237094.124 8
 89 11 14 10 29 59.0800000  0  4G 2G 6G11G 9
  23476805.614    23476809.165     3196318.410 9   1974173.013 8
  21320912.526    21320915.462     1748421.425 9  -8611734.685 9
  22618463.560    22618468.141    -1474874.336 9 -11120555.294 9
  23899239.532    23899241.982    -3444919.406 9   -304717.692 9
 89 11 14 10 30 29.0800000  0  4G 2G 6G11G 9
  23491959.320    23491962.464     3275949.525 9   2036223.163 9
  21311567.733    21311568.674     1699307.564 9  -8650005.222 9
  22599901.283    22599901.610    -1572417.386 9 -11196562.837 8
  23882721.449    23882724.090    -3531721.097 9   -372355.369 8
 89 11 14 10 30 59.0800000  0  4G 2G 6G11G 9
  23507119.688    23507122.637     3355617.237 7   2098301.872 9
  21302253.016    21302255.073     1650367.087 9  -8688140.653 8
  22581398.915    22581399.099    -1669652.246 9 -11272330.262 9
  23866201.573    23866204.306    -3618539.963 9   -440006.460 9
 89 11 14 10 31 29.0800000  0  4G 2G 6G11G 9
  23522285.577    23522290.327     3435320.663 8   2160408.406 8
  21292975.426    21292976.255     1601601.511 9  -8726139.773 8
  22562952.600    22562957.930    -1766576.194 9 -11347855.419 9
  23849677.488    23849678.529    -3705375.113 9   -507670.224 7
 89 11 14 10 31 59.0800000  0  4G 2G 6G11G 9
  23537460.210    23537463.382     3515059.249 8   2222542.291 9
  21283728.886    21283729.780     1553012.651 9  -8764001.275 8
  22544570.849    22544573.193    -1863186.550 9 -11423136.168 9
  23833150.541    23833150.538    -3792225.585 9   -575345.898 8
 89 11 14 10 32 29.0800000  0  4G 2G 6G11G 9
  23552639.961    23552644.509     3594832.162 8   2284702.911 9
  21274515.405    21274518.181     1504602.148 9  -8801723.770 8
  22526245.003    22526250.127    -1959480.989 8 -11498170.839 9
  23816620.063    23816622.405    -3879090.220 9   -643032.656 8
 89 11 14 10 32 59.0800000  0  4G 2G 6G11G 9
  23567828.008    23567830.474     3674639.185 9   2346890.125 9
  21265338.040    21265338.934     1456371.830 9  -8839305.913 8
  22507981.475    22507985.562    -2055456.257 9 -11572956.739 9
  23800088.132    23800089.059    -3965968.300 9   -710729.887 8
 89 11 14 10 33 29.0800000  0  4G 2G 6G11G 9
  23583019.525    23583024.499     3754479.105 8   2409102.969 9
  21256194.988    21256197.018     1408323.568 8  -8876746.124 8
  22489778.210    22489782.486    -2151109.618 9 -11647491.759 9
  23783552.689    23783553.797    -4052858.451 9   -778436.470 8
 89 11 14 10 33 59.0800000  0  4G 2G 6G11G 9
  23598220.020    23598223.610     3834351.325 9   2471340.981 8
  21247085.698    21247088.008     1360459.009 9  -8914043.167 8
  22471637.154    22471641.216    -2246438.720 9 -11721774.156 8
  23767016.398    23767018.953    -4139759.925 8   -846151.894 8
 89 11 14 10 34 29.0800000  0  4G 2G 6G11G 9
  23613425.365    23613427.936     3914255.566 9   2533603.974 8
  21238013.038    21238014.625     1312780.090 9  -8951195.557 8
  22453559.821    22453564.472    -2341440.700 9 -11795801.678 9
  23750476.057    23750478.908    -4226671.335 8   -913875.032 8
 89 11 14 10 34 59.0800000  0  4G 2G 6G11G 9
  23628637.135    23628640.239     3994191.233 9   2595891.434 8
  21228975.747    21228978.652     1265288.633 8  -8988201.858 8
  22435543.823    22435547.632    -2436112.726 8 -11869572.056 9
  23733934.420    23733937.908    -4313591.657 9   -981605.068 9
 89 11 14 10 35 29.0800000  0  4G 2G 6G11G 9
  23643853.489    23643857.575     4074157.272 9   2658202.555 9
  21219975.613    21219976.415     1217986.266 9  -9025060.850 7
  22417593.323    22417595.802    -2530452.514 9 -11943083.567 8
  23717393.194    23717396.136    -4400520.073 8  -1049341.467 9
 89 11 14 10 35 59.0800000  0  4G 2G 6G11G 9
  23659077.000    23659080.527     4154153.577 9   2720537.276 8
  21211009.966    21211011.293     1170874.705 9  -9061771.209 8
  22399704.304    22399707.387    -2624457.269 9 -12016334.031 8
  23700852.774    23700853.818    -4487455.461 9  -1117083.298 7
 89 11 14 10 36 29.0800000  0  4G 2G 6G11G 9
  23674305.059    23674308.746     4234178.986 9   2782894.680 9
  21202081.734    21202083.828     1123955.915 9  -9098331.313 7
  22381879.437    22381883.088    -2718124.095 9 -12089321.153 9
  23684306.858    23684309.190    -4574396.555 8  -1184829.558 9
 89 11 14 10 36 59.0800000  0  4G 2G 6G11G 9
  23689538.987    23689542.257     4314232.864 9   2845274.255 8
  21193190.265    21193189.602     1077231.720 9  -9134739.756 7
  22364120.225    22364123.393    -2811450.147 9 -12162042.739 9
  23667761.052    23667764.098    -4661342.251 8  -1252579.377 9
 89 11 14 10 37 29.0800000  0  4G 2G 6G11G 9
  23704778.617    23704780.755     4394314.418 9   2907675.382 9
  21184336.064    21184337.009     1030704.205 9  -9170994.931 8
  22346426.957    22346429.730    -2904433.027 9 -12234496.858 9
  23651217.040    23651218.054    -4748291.490 8  -1320331.997 8
 89 11 14 10 37 59.0800000  0  4G 2G 6G11G 9
  23720022.512    23720025.758     4474423.890 9   2970098.271 8
  21175520.444    21175519.814      984374.749 9  -9207095.757 8
  22328797.061    22328801.342    -2997070.663 9 -12306682.028 9
  23634669.795    23634671.769    -4835243.371 9  -1388086.714 9
 89 11 14 10 38 29.0800000  0  4G 2G 6G11G 9
  23735271.885    23735275.015     4554560.256 8   3032542.123 8
  21166741.788    21166742.595      938245.666 9  -9243040.437 8
  22311235.758    22311239.042    -3089359.824 9 -12378595.597 8
  23618123.922    23618125.089    -4922196.285 9  -1455842.182 8
 89 11 14 10 38 59.0800000  0  4G 2G 6G11G 9
  23750525.701    23750530.370     4634722.774 8   3095006.342 8
  21158001.701    21158003.715      892318.178 9  -9278828.064 7
  22293740.033    22293743.435    -3181298.146 9 -12450235.813 9
  23601576.599    23601576.982    -5009149.508 9  -1523597.911 8
 89 11 14 10 39 29.0800000  0  4G 2G 6G11G 9
  23765786.071    23765789.350     4714911.240 9   3157490.784 8
  21149299.736    21149302.089      846594.542 9  -9314456.894 7
  22276312.959    22276314.898    -3272882.572 9 -12521600.285 8
  23585030.064    23585031.546    -5096101.683 9  -1591352.813 8
 89 11 14 10 39 59.0800000  0  4G 2G 6G11G 9
  23781049.200    23781053.239     4795124.394 9   3219994.425 9
  21140638.180    21140639.977      801076.410 9  -9349925.545 7
  22258952.947    22258956.087    -3364110.781 9 -12592687.167 9
  23568484.929    23568486.248    -5183051.730 9  -1659106.127 8
 89 11 14 10 40 29.0800000  0  4G 2G 6G11G 9
  23796318.623    23796322.841     4875362.295 9   3282517.393 8
  21132016.990    21132018.727      755765.832 9  -9385232.446 8
  22241660.843    22241663.971    -3454980.292 9 -12663494.561 9
  23551937.694    23551939.248    -5269998.528 9  -1726856.892 8
 89 11 14 10 40 59.0800000  0  4G 2G 6G11G 9
  23811591.922    23811595.896     4955624.261 8   3345059.104 7
  21123433.507    21123435.371      710664.765 9  -9420376.119 7
  22224437.177    22224439.999    -3545488.435 9 -12734020.347 8
  23535392.784    23535394.584    -5356940.402 9  -1794603.835 8
 89 11 14 10 41 29.0800000  0  4G 2G 6G11G 9
  23826870.146    23826873.149     5035909.951 8   3407619.292 8
  21114891.508    21114894.623      665775.006 9  -9455355.182 7
  22207283.944    22207285.778    -3635632.829 9 -12804262.717 9
  23518851.403    23518850.556    -5443876.682 9  -1862346.393 8
 89 11 14 10 41 59.0800000  0  4G 2G 6G11G 9
  23842152.140    23842154.971     5116218.381 8   3470197.205 9
  21106389.466    21106391.051      621098.469 9  -9490168.053 8
  22190198.619    22190202.490    -3725410.768 9 -12874219.525 9
  23502307.231    23502307.972    -5530805.682 9  -1930083.284 7
 89 11 14 10 42 29.0800000  0  4G 2G 6G11G 9
  23857440.161    23857442.058     5196549.302 9   3532792.645 8
  21097929.665    21097931.319      576637.053 9  -9524813.301 7
  22173185.055    22173187.737    -3814819.855 9 -12943888.926 9
  23485766.596    23485769.845    -5617726.214 8  -1997813.554 8
 89 11 14 10 42 59.0800000  0  4G 2G 6G11G 9
  23872729.541    23872731.656     5276901.994 9   3595405.062 8
  21089510.605    21089513.105      532392.539 9  -9559289.527 8
  22156240.913    22156245.356    -3903857.524 9 -13013269.007 8
  23469228.651    23469231.997    -5704637.443 8  -2065536.572 8
 89 11 14 10 43 29.0800000  0  4G 2G 6G11G 9
  23888024.727    23888026.371     5357275.658 9   3658033.824 9
  21081132.205    21081133.767      488366.745 9  -9593595.310 8
  22139369.604    22139373.394    -3992521.345 9 -13082357.707 9
  23452692.768    23452695.799    -5791537.891 8  -2133251.186 9
 89 11 14 10 43 59.0800000  0  4G 2G 6G11G 9
  23903323.209    23903326.283     5437670.044 9   3720678.741 8
  21072796.443    21072797.312      444561.664 8  -9627729.132 8
  22122568.642    22122572.857    -4080808.448 9 -13151152.797 8
  23436158.589    23436161.127    -5878426.469 9  -2200956.560 9
 89 11 14 10 44 29.0800000  0  4G 2G 6G11G 9
  23918625.876    23918628.994     5518084.795 9   3783339.513 9
  21064502.687    21064504.076      400979.182 9  -9661689.526 8
  22105840.783    22105845.250    -4168716.770 9 -13219652.718 8
  23419625.455    23419628.149    -5965301.798 9  -2268651.618 8
 89 11 14 10 44 59.0800000  0  4G 2G 6G11G 9
  23933931.706    23933935.399     5598518.971 9   3846015.416 8
  21056253.115    21056253.646      357621.558 8  -9695474.733 8
  22089185.185    22089188.894    -4256243.336 9 -13287855.227 9
  23403095.586    23403098.641    -6052162.239 8  -2336335.057 8
 89 11 14 10 45 29.0800000  0  4G 2G 6G11G 9
  23949241.264    23949244.246     5678972.222 9   3908706.198 9
  21048044.387    21048045.542      314490.316 9  -9729083.534 8
  22072601.857    22072604.787    -4343386.043 9 -13355758.612 7
  23386571.045    23386572.780    -6139006.811 9  -2404006.166 9
 89 11 14 10 45 59.0800000  0  4G 2G 6G11G 9
  23964554.805    23964559.161     5759444.675 9   3971411.947 9
  21039879.885    21039881.865      271587.578 8  -9762514.237 8
  22056092.640    22056096.082    -4430142.790 9 -13423361.319 9
  23370048.511    23370051.496    -6225834.200 9  -2471663.843 8
 89 11 14 10 46 29.0800000  0  4G 2G 6G11G 9
  23979871.686    23979874.945     5839935.305 9   4034131.831 9
  21031759.614    21031762.624      228915.267 9  -9795765.362 9
  22039657.114    22039661.239    -4516510.787 9 -13490661.053 9
  23353529.802    23353531.276    -6312643.012 8  -2539307.074 8
 89 11 14 10 46 59.0800000  0  4G 2G 6G11G 9
  23995191.838    23995196.071     5920443.582 9   4096865.467 9
  21023683.762    21023686.557      186475.423 9  -9828835.364 8
  22023297.855    22023300.124    -4602487.462 9 -13557655.851 8
  23337014.477    23337015.840    -6399431.792 8  -2606934.725 8
 89 11 14 10 47 29.0800000  0  4G 2G 6G11G 9
  24010514.954    24010519.451     6000969.482 9   4159612.851 9
  21015653.125    21015654.045      144270.052 8  -9861722.660 9
  22007010.798    22007014.364    -4688070.371 9 -13624343.851 9
  23320502.585    23320506.557    -6486198.949 9  -2674545.458 8
 89 11 14 10 47 59.0800000  0  4G 2G 6G11G 9
  24025842.047    24025846.090     6081512.564 9   4222373.597 9
  21007666.090    21007668.777      102300.888 8  -9894425.922 7
  21990802.297    21990804.125    -4773257.124 9 -13690723.111 8
  23303995.374    23303998.388    -6572943.660 8  -2742138.718 9
 89 11 14 10 48 29.0800000  0  4G 2G 6G11G 9
  24041171.810    24041175.780     6162071.438 9   4285146.674 9
  20999724.699    20999727.341       60569.601 9  -9926943.905 8
  21974665.742    21974669.145    -4858045.552 9 -13756792.017 8
  23287493.205    23287494.688    -6659664.647 9  -2809713.522 8
 89 11 14 10 48 59.0800000  0  4G 2G 6G11G 9
  24056504.518    24056509.759     6242645.823 9   4347931.838 9
  20991830.116    20991832.107       19078.786 9  -9959274.415 9
  21958607.876    21958611.369    -4942433.576 9 -13822548.904 8
  23270995.403    23270998.601    -6746360.163 9  -2877268.523 8
 89 11 14 10 49 29.0800000  0  4G 2G 6G11G 9
  24071839.950    24071844.996     6323235.947 9   4410729.272 8
  20983980.241    20983982.717      -22169.865 9  -9991416.170 8
  21942625.034    21942627.593    -5026418.652 9 -13887991.814 8
  23254503.447    23254504.439    -6833028.719 8  -2944802.412 9
 89 11 14 10 49 59.0800000  0  4G 2G 6G11G 9
  24087178.211    24087183.705     6403840.779 8   4473538.182 8
  20976177.787    20976179.033      -63174.561 9 -10023367.846 8
  21926721.192    21926725.439    -5109998.449 9 -13953118.958 8
  23238016.734    23238018.239    -6919669.454 9  -3012314.658 9
 89 11 14 10 50 29.0800000  0  4G 2G 6G11G 9
  24102518.657    24102524.454     6484459.462 7   4536357.875 7
  20968422.443    20968423.286     -103933.568 9 -10055128.172 9
  21910894.277    21910896.665    -5193170.547 9 -14017928.358 8
  23221534.655    23221537.191    -7006280.591 9  -3079803.842 9
 89 11 14 10 50 59.0800000  0  4G 2G 6G11G 9
  24117863.688    24117868.666     6565092.128 7   4599188.425 8
  20960712.915    20960714.894     -144444.439 8 -10086695.112 9
  21895144.776    21895147.069    -5275932.726 9 -14082418.376 8
  23205058.223    23205061.570    -7092860.885 9  -3147268.984 8
 89 11 14 10 51 29.0800000  0  4G 2G 6G11G 9
  24133210.295    24133215.486     6645738.675 7   4662029.793 9
  20953051.127    20953051.802     -184705.271 9 -10118067.217 8
  21879474.178    21879476.536    -5358282.685 9 -14146587.233 8
  23188588.106    23188591.663    -7179408.637 9  -3214708.763 8
 89 11 14 10 51 59.0800000  0  4G 2G 6G11G 9
  24148559.775    24148564.268     6726398.425 8   4724881.460 8
  20945438.160    20945439.294     -224714.085 8 -10149242.925 7
  21863882.082    21863884.846    -5440217.760 9 -14210432.770 8
  23172126.743    23172129.056    -7265922.537 9  -3282122.176 8
 89 11 14 10 52 29.0800000  0  4G 2G 6G11G 9
  24163911.984    24163916.512     6807071.023 8   4787743.133 8
  20937872.849    20937874.957     -264468.676 8 -10180220.496 9
  21848369.966    21848373.107    -5521736.031 9 -14273953.536 8
  23155671.040    23155672.271    -7352400.934 9  -3349507.907 8
 89 11 14 10 52 59.0800000  0  4G 2G 6G11G 9
  24179266.471    24179270.123     6887756.458 9   4850614.839 8
  20930357.467    20930358.281     -303967.086 9 -10210998.424 8
  21832937.481    21832940.802    -5602835.061 9 -14337147.598 8
  23139220.113    23139221.141    -7438842.307 9  -3416864.819 8
 89 11 14 10 53 29.0800000  0  4G 2G 6G11G 9
  24194622.142    24194626.599     6968453.792 9   4913495.809 8
  20922889.681    20922889.746     -343207.555 9 -10241575.400 8
  21817585.148    21817587.116    -5683512.359 9 -14400013.041 8
  23122779.671    23122780.675    -7525245.271 8  -3484191.781 8
 89 11 14 10 53 59.0800000  0  4G 2G 6G11G 9
  24209981.092    24209985.544     7049162.406 9   4976385.600 9
  20915471.729    20915473.325     -382187.960 9 -10271949.748 8
  21802314.486    21802316.430    -5763766.175 9 -14462548.449 9
  23106344.279    23106344.920    -7611608.343 9  -3551487.660 8
 89 11 14 10 54 29.0800000  0  4G 2G 6G11G 9
  24225341.939    24225344.900     7129882.292 9   5039284.146 9
  20908103.715    20908104.506     -420906.333 9 -10302119.911 8
  21787122.924    21787124.911    -5843594.329 9 -14524752.185 8
  23089917.787    23089920.186    -7697930.154 9  -3618751.374 8
 89 11 14 10 54 59.0800000  0  4G 2G 6G11G 9
  24240703.718    24240707.508     7210612.348 9   5102190.620 9
  20900786.584    20900787.595     -459360.738 9 -10332084.361 9
  21772012.433    21772016.241    -5922994.863 9 -14586622.760 9
  23073499.538    23073501.676    -7784208.917 9  -3685981.551 8
 89 11 14 10 55 29.0800000  0  4G 2G 6G11G 9
  24256068.598    24256071.968     7291353.407 9   5165105.688 9
  20893519.020    20893520.643     -497548.858 9 -10361841.339 8
  21756985.944    21756987.733    -6001965.105 9 -14648158.029 8
  23057089.090    23057092.433    -7870443.097 9  -3753176.963 8
 89 11 14 10 55 59.0800000  0  4G 2G 6G11G 9
  24271434.862    24271438.508     7372104.437 9   5228028.502 9
  20886303.057    20886304.379     -535468.831 9 -10391389.359 8
  21742039.291    21742043.482    -6080502.838 9 -14709356.236 8
  23040688.670    23040690.690    -7956631.353 9  -3820336.621 9
 89 11 14 10 56 29.0800000  0  4G 2G 6G11G 9
  24286802.629    24286807.333     7452864.771 9   5290958.583 9
  20879138.254    20879139.107     -573118.950 1 -10420727.100 1
  21727177.132    21727180.598    -6158605.983 9 -14770215.811 8
  23024296.149    23024298.684    -8042772.009 9  -3887459.172 9
 89 11 14 10 56 59.0800000  0  4G 2G 6G11G 9
  24302172.952    24302177.690     7533634.261 9   5353895.786 9
  20872025.453    20872027.036     -610496.890 9 -10449852.790 8
  21712397.991    21712400.550    -6236272.521 9 -14830735.172 9
  23007913.980    23007915.239    -8128863.792 9  -3954543.671 9
 89 11 14 10 57 29.0800000  0  4G 2G 6G11G 9
  24317544.689    24317549.518     7614412.912 9   5416840.127 9
  20864965.996    20864967.424     -647600.668 9 -10478764.818 8
  21697701.873    21697706.509    -6313500.741 9 -14890912.996 8
  22991541.152    22991542.280    -8214904.875 9  -4021588.679 8
 89 11 14 10 57 59.0800000  0  4G 2G 6G11G 9
  24332918.435    24332922.714     7695200.003 9   5479791.044 9
  20857957.410    20857958.732     -684427.964 9 -10507461.357 8
  21683089.425    21683093.100    -6390287.778 9 -14950747.059 9
  22975179.153    22975180.400    -8300893.461 9  -4088592.763 9
 89 11 14 10 58 29.0800000  0  4G 2G 6G11G 9
  24348292.364    24348296.718     7775995.389 9   5542748.446 9
  20851003.422    20851003.602     -720977.061 9 -10535941.186 8
  21668562.390    21668565.672    -6466631.677 9 -15010235.775 8
  22958824.973    22958827.823    -8386828.023 9  -4155554.733 8
 89 11 14 10 58 59.0800000  0  4G 2G 6G11G 9
  24363668.537    24363673.434     7856798.065 8   5605711.501 8
  20844100.897    20844101.625     -757245.874 9 -10564202.573 8
  21654119.483    21654120.991    -6542530.536 9 -15069377.719 9
  22942483.264    22942484.358    -8472706.867 9  -4222473.304 9
 89 11 14 10 59 29.0800000  0  4G 2G 6G11G 9
  24379046.630    24379052.247     7937608.603 8   5668680.679 9
  20837252.393    20837254.107     -793232.102 9 -10592243.736 9
  21639760.904    21639764.367    -6617982.156 9 -15128171.118 9
  22926151.225    22926152.307    -8558528.306 9  -4289347.114 8
 89 11 14 10 59 59.0800000  0  4G 2G 6G11G 9
  24394426.017    24394429.735     8018426.723 7   5731655.781 9
  20830459.107    20830460.830     -828934.123 9 -10620063.501 8
  21625488.470    21625491.170    -6692984.806 9 -15186614.689 8
  22909831.162    22909833.611    -8644290.877 9  -4356175.077 8
 89 11 14 11  0 29.0800000  0  4G 2G 6G11G 9
  24409806.163    24409811.228     8099251.649 7   5794636.157 9
  20823718.766    20823720.982     -864349.623 9 -10647660.015 8
  21611301.657    21611305.049    -6767536.371 9 -15244706.803 9
  22893522.543    22893525.046    -8729993.006 8  -4422955.961 8
 89 11 14 11  0 59.0800000  0  4G 2G 6G11G 9
  24425188.807    24425191.354     8180083.231 7   5857621.725 9
  20817035.309    20817036.926     -899476.705 9 -10675031.876 8
  21597201.009    21597204.955    -6841634.813 9 -15302445.833 8
  22877225.772    22877227.575    -8815632.743 9  -4489688.188 7
 89 11 14 11  1 29.0800000  0  4G 2G 6G11G 9
  24440571.273    24440575.090     8260920.679 7   5920611.885 8
  20810406.061    20810407.422     -934313.062 9 -10702177.065 8
  21583187.004    21583191.383    -6915278.282 9 -15359830.341 8
  22860941.018    22860944.072    -8901208.495 9  -4556370.516 8
 89 11 14 11  1 59.0800000  0  4G 2G 6G11G 9
  24455954.851    24455959.168     8341764.023 8   5983606.627 9
  20803832.016    20803834.059     -968856.588 9 -10729094.054 8
  21569260.797    21569263.605    -6988464.534 9 -15416858.650 9
  22844670.412    22844670.483    -8986718.425 9  -4623001.555 8
 89 11 14 11  2 29.0800000  0  4G 2G 6G11G 9
  24471339.984    24471343.833     8422613.572 8   6046606.220 8
  20797315.328    20797316.289    -1003105.284 9 -10755781.283 8
  21555421.175    21555422.825    -7061191.559 9 -15473529.121 8
  22828412.366    22828412.400    -9072160.942 9  -4689580.060 8
 89 11 14 11  2 59.0800000  0  4G 2G 6G11G 9
  24486725.990    24486731.234     8503468.559 8   6109610.057 7
  20790854.248    20790855.735    -1037057.184 9 -10782237.267 8
  21541668.891    21541671.976    -7133457.405 9 -15529840.139 8
  22812164.645    22812168.813    -9157534.434 9  -4756104.810 9
 89 11 14 11  3 29.0800000  0  4G 2G 6G11G 9
  24502113.907    24502117.379     8584328.427 8   6172617.704 7
  20784449.828    20784452.185    -1070710.406 9 -10808460.588 9
  21528005.974    21528008.257    -7205260.731 9 -15585790.774 8
  22795929.589    22795932.658    -9242836.933 9  -4822574.250 9
 89 11 14 11  3 59.0800000  0  4G 2G 6G11G 9
  24517502.613    24517505.441     8665193.285 9   6235629.230 7
  20778104.502    20778105.437    -1104062.550 9 -10834449.226 8
  21514429.742    21514433.826    -7276598.563 9 -15641378.638 8
  22779712.795    22779716.980    -9328066.908 9  -4888987.180 8
 89 11 14 11  4 29.0800000  0  4G 2G 6G11G 9
  24532891.427    24532894.601     8746062.174 8   6298643.899 8
  20771814.472    20771815.672    -1137111.818 9 -10860201.809 8
  21500943.848    21500947.720    -7347469.891 9 -15696602.986 8
  22763510.470    22763509.957    -9413222.794 9  -4955342.358 9
 89 11 14 11  4 59.0800000  0  4G 2G 6G11G 9
  24548280.699    24548285.154     8826935.681 9   6361662.153 7
  20765583.687    20765584.337    -1169856.181 9 -10885716.878 9
  21487546.301    21487550.703    -7417872.757 9 -15751462.321 8
  22747319.142    22747320.216    -9498302.479 9  -5021638.199 8
 89 11 14 11  5 29.0800000  0  4G 2G 6G11G 9
  24563671.916    24563675.018     8907813.064 9   6424683.460 8
  20759410.563    20759411.320    -1202293.754 9 -10910992.989 8
  21474239.024    21474241.378    -7487805.355 9 -15805955.272 8
  22731141.768    22731145.852    -9583304.446 8  -5087873.474 8
 89 11 14 11  5 59.0800000  0  4G 2G 6G11G 9
  24579062.621    24579067.035     8988694.298 9   6487707.747 7
  20753296.661    20753298.559    -1234422.137 9 -10936028.203 8
  21461020.439    21461023.412    -7557265.412 9 -15860079.984 8
  22714981.364    22714984.008    -9668226.480 9  -5154046.477 8
 89 11 14 11  6 29.0800000  0  4G 2G 6G11G 9
  24594454.046    24594457.767     9069578.842 9   6550734.616 7
  20747241.799    20747244.360    -1266239.560 9 -10960821.137 9
  21447892.989    21447896.001    -7626251.436 9 -15913835.284 8
  22698837.220    22698840.627    -9753067.029 9  -5220155.946 8
 89 11 14 11  6 59.0800000  0  4G 2G 6G11G 9
  24609846.846    24609851.020     9150466.331 9   6613763.787 7
  20741247.002    20741249.783    -1297743.251 9 -10985369.373 8
  21434856.055    21434859.559    -7694761.464 9 -15967219.668 8
  22682710.638    22682710.259    -9837824.506 8  -5286200.691 8
 89 11 14 11  7 29.0800000  0  4G 2G 6G11G 9
  24625239.048    24625243.422     9231357.053 9   6676795.495 7
  20735312.933    20735313.570    -1328931.574 9 -11009671.908 9
  21421911.386    21421913.274    -7762794.021 9 -16020231.972 8
  22666596.753    22666597.324    -9922496.659 9  -5352178.973 8
 89 11 14 11  7 59.0800000  0  4G 2G 6G11G 9
  24640632.811    24640637.281     9312250.567 9   6739829.376 7
  20729437.557    20729438.781    -1359802.344 9 -11033727.022 8
  21409055.327    21409059.103    -7830346.914 9 -16072870.490 8
  22650500.662    22650502.388   -10007081.705 9  -5418089.364 8
 89 11 14 11  8 29.0800000  0  4G 2G 6G11G 9
  24656026.967    24656031.177     9393147.034 9   6802865.581 7
  20723623.542    20723626.205    -1390353.695 9 -11057533.342 7
  21396291.710    21396294.528    -7897418.657 9 -16125134.109 9
  22634421.002    22634422.746   -10091577.618 9  -5483930.292 8
 89 11 14 11  8 59.0800000  0  4G 2G 6G11G 9
  24671420.559    24671424.940     9474045.227 9   6865903.108 7
  20717871.950    20717872.819    -1420583.365 9 -11081088.876 7
  21383619.238    21383622.276    -7964007.776 9 -16177021.717 9
  22618359.743    22618361.260   -10175983.096 9  -5549700.723 9
 89 11 14 11  9 29.0800000  0  4G 2G 6G11G 9
  24686816.115    24686820.239     9554945.670 9   6928942.358 8
  20712180.326    20712181.728    -1450489.524 9 -11104392.362 8
  21371041.114    21371044.340    -8030112.526 9 -16228531.852 8
  22602314.470    22602317.757   -10260296.065 9  -5615399.112 7
 89 11 14 11  9 59.0800000  0  4G 2G 6G11G 9
  24702211.738    24702216.298     9635848.134 9   6991983.149 8
  20706551.107    20706552.977    -1480070.075 9 -11127442.162 8
  21358554.160    21358557.368    -8095730.988 9 -16279663.074 9
  22586287.929    22586290.612   -10344514.499 9  -5681023.847 8
 89 11 14 11 10 29.0800000  0  4G 2G 6G11G 9
  24717607.781    24717611.476     9716752.406 8   7055025.382 9
  20700984.274    20700986.544    -1509322.660 9 -11150236.301 8
  21346160.118    21346163.324    -8160861.309 9 -16330413.946 8
  22570281.498    22570283.883   -10428636.513 9  -5746573.442 9
 89 11 14 11 10 59.0800000  0  4G 2G 6G11G 9
  24733003.694    24733007.183     9797657.612 9   7118068.336 9
  20695480.354    20695481.975    -1538245.494 9 -11172773.530 8
  21333859.889    21333863.270    -8225501.946 9 -16380783.230 9
  22554291.542    22554293.230   -10512660.326 9  -5812046.540 9
 89 11 14 11 11 29.0800000  0  4G 2G 6G11G 9
  24748399.043    24748404.010     9878564.448 8   7181112.555 8
  20690040.432    20690040.899    -1566836.618 3 -11195052.347 3
  21321651.503    21321654.480    -8289651.195 9 -16430769.579 8
  22538321.691    22538323.044   -10596583.840 9  -5877441.466 8
 89 11 14 11 11 59.0800000  0  4G 2G 6G11G 9
  24763794.282    24763799.855     9959471.990 8   7244157.342 9
  20684661.625    20684664.967    -1595093.510 5 -11217070.702 3
  21309539.319    21309541.848    -8353307.621 9 -16480371.940 9
  22522370.939    22522371.983   -10680405.129 9  -5942756.729 8
 89 11 14 11 12 29.0800000  0  4G 2G 6G11G 9
  24779191.188    24779196.617    10040380.576 7   7307202.925 8
  20679350.184    20679351.115    -1623014.609 8 -11238827.423 8
  21297519.611    21297524.883    -8416469.970 1 -16529589.280 1
  22506440.209    22506441.838   -10764122.413 9  -6007990.954 8
 89 11 14 11 12 59.0800000  0  4G 2G 6G11G 9
  24794590.209    24794592.400    10121289.619 7   7370248.824 8
  20674101.957    20674102.311    -1650597.599 4 -11260320.664 5
  21285593.638    21285598.678    -8479136.091 9 -16578420.006 8
  22490531.059    22490538.249   -10847733.568 1  -6073142.495 1
 89 11 14 11 13 29.0800000  0  4G 2G 6G11G 9
  24809984.645    24809989.258    10202199.173 4   7433295.148 9
  20668916.577    20668917.433    -1677840.335 9 -11281548.693 8
  21273764.290    21273767.461    -8541304.725 1 -16626863.079 1
                                 -21764981.045 1  -5874453.072 1
